EHI
0 0 0 0 0 0 0 0 0 0 0 0 0 0 0 0 0 0 0 0 0 0 0 0 0 0 0 0 0 0 0 0 0 0 0 0 0 0 0 0 0 0 0
0 0 0 0 0 0 0 0 0 0 0 0 0 0 0 0 0 0 0 0 0 0 0 0 0 0 0 0 0 0 0 0 0 0 0 0 0 0 0 0 0 0 0
0 0 0 0 0 0 0 0 0 0 0 0 0 0 0 0 0 0 0 0 0 0 0 0 0 0 0 0 0 0 0 0 0 0 0 0 0 0 0 0 0 0 0
0 0 0 0 0 0 0 0 0 0 0 0 0 0 0 0 0 0 0 0 0 0 0 0 0 0 0 0 0 0 0 0 0 0 0 0 0 0 0 0 0 0 0
0 0 0 0 0 0 0 0 0 0 0 0 0 0 0 0 0 0 0 0 0 0 0 0 0 0 0 0 0 0 0 0 0 0 0 0 0 0 0 0 0 0 0
0 0 0 0 0 0 0 0 0 0 0 0 0 0 0 0 0 0 0 0 0 0 0 0 0 0 0 0 0 0 0 0 0 0 0 0 0 0 0 0 0 0 0
0 0 0 0 0 0 0 0 0 0 0 0 0 0 0 0 0 0 0 0 0 0 0 0 0 0 0 0 0 0 0 0 0 0 0 0 0 0 0 0 0 0 0
0 0 0 0 0 0 0 0 0 0 0 0 0 0 0 0 0 0 0 0 0 0 0 0 0 0 0 0 0 0 0 0 0 0 0 0 0 0 0 0 0 0 0
0 0 0 0 0 0 0 0 0 0 0 0 0 0 0 0 0 0 0 0 0 0 0 0 0 0 0 0 0 0 0 0 0 0 0 0 0 0 0 0 0 0 0
0 0 0 0 0 0 0 0 0 0 0 0 0 0 0 0 0 0 0 0 0 0 0 0 0 0 0 0 0 0 0 0 0 0 0 0 0 0 0 0 0 0 0
0 0 0 0 0 0 0 0 0 0 0 0 0 0 0 0 0 0 0 0 0 0 0 0 0 0 0 0 0 0 0 0 0 0 0 0 0 0 0 0 0 0 0
0 0 0 0 0 0 0 0 0 0 0 0 0 0 0 0 0 0 0 0 0 0 0 0 0 0 0 0 0 0 0 0 0 0 0 0 0 0 0 0 0 0 0
0 0 0 0 0 0 0 0 0 0 0 0 0 0 0 0 0 0 0 0 0 0 0 0 0 0 0 0 0 0 0 0 0 0 0 0 0 0 0 0 0 0 0
0 0 0 0 0 0 0 0 0 0 0 0 0 0 0 0 0 0 0 0 0 0 0 0 0 0 0 0 0 0 0 0 0 0 0 0 0 0 0 0 0 0 0
0 0 0 0 0 0 0 0 0 0 0 0 0 0 0 0 0 0 0 0 0 0 0 0 0 0 0 0 0 0 0 0 0 0 0 0 0 0 0 0 0 0 0
0 0 0 0 0 0 0 0 0 0 0 0 0 0 0 0 0 0 0 0 0 0 0 0 0 0 0 0 0 0 0 0 0 0 0 0 0 0 0 0 0 0 0
0 0 0 0 0 0 0 0 0 0 0 0 0 0 0 0 0 0 0 0 0 0 0 0 0 0 0 0 0 0 0 0 0 0 0 0 0 0 0 0 0 0 0
0 0 0 0 0 0 0 0 0 0 0 0 0 0 0 0 0 0 0 0 0 0 0 0 0 0 0 0 0 0 0 0 0 0 0 0 0 0 0 0 0 0 0
0 0 0 0 0 0 0 0 0 0 0 0 0 0 0 0 0 0 0 0 0 0 0 0 0 0 0 0 0 0 0 0 0 0 0 0 0 0 0 0 0 0 0
0 0 0 0 0 0 0 0 0 0 0 0 0 0 0 0 0 0 0 0 0 0 0 0 0 0 0 0 0 0 0 0 0 0 0 0 0 0 0 0 0 0 0
0 0 0 0 0 0 0 0 0 0 0 0 0 0 0 0 0 0 0 0 0 0 0 0 0 0 0 0 0 0 0 0 0 0 0 0 0 0 0 0 0 0 0
0 0 0 0 0 0 0 0 0 0 0 0 0 0 0 0 0 0 0 0 0 0 0 0 0 0 0 0 0 0 0 0 0 0 0 0 0 0 0 0 0 0 0
0 0 0 0 0 0 0 0 0 0 0 0 0 0 0 0 0 0 0 0 0 0 0 0 0 0 0 0 0 0 0 0 0 0 0 0 0 0 0 0 0 0 0
0 0 0 0 0 0 0 0 0 0 0 0 0 0 0 0 0 0 0 0 0 0 0 0 0 0 0 0 0 0 0 0 0 0 0 0 0 0 0 0 0 0 0
0 0 0 0 0 0 0 0 0 0 0 0 0 0 0 0 0 0 0 0 0 0 0 0 0 0 0 0 0 0 0 0 0 0 0 0 0 0 0 0 0 0 0
0 0 0 0 0 0 0 0 0 0 0 0 0 0 0 0 0 0 0 0 0 0 0 0 0 0 0 0 0 0 0 0 0 0 0 0 0 0 0 0 0 0 0
Wind_Speed
4 3 3 1 1 2 3 4 4 3 4 4 4 2 2 2 2 2 3 5 6 7 8 8 9 9 7 6 6 6 6 7 10 7 5 7 7 8 8 6 6 4 4
3 2 0 1 2 3 4 4 4 4 4 4 3 1 1 1 0 2 4 6 7 9 10 9 11 9 8 7 6 7 7 7 8 10 7 6 7 8 8 7 4 2 2
2 1 2 3 3 4 4 4 4 4 4 4 3 3 3 3 2 2 4 6 7 9 10 10 11 10 10 7 6 6 6 7 6 8 9 7 6 6 6 4 1 1 1
3 2 3 3 4 4 4 4 4 4 4 5 4 4 4 3 2 3 5 6 8 9 10 10 10 10 10 7 6 6 6 7 7 9 9 8 7 5 4 3 2 2 1
3 4 4 4 4 3 4 4 5 5 5 5 5 4 3 2 1 4 5 8 8 10 10 10 10 15 15 9 8 8 8 8 9 9 9 8 7 5 4 2 3 3 1
4 5 4 3 3 4 5 5 5 5 5 5 5 4 3 1 2 8 10 7 9 10 10 9 11 12 13 16 17 17 16 13 12 11 9 9 8 5 3 3 4 3 1
4 4 3 3 4 5 5 5 5 5 4 5 4 2 1 1 3 8 15 10 9 10 10 9 10 11 13 8 14 19 18 21 21 15 12 11 8 5 5 5 3 3 2
3 3 4 5 6 6 6 6 5 4 3 3 3 1 1 1 4 9 17 10 9 9 9 10 11 12 10 11 13 13 13 14 15 11 9 8 6 4 5 6 8 7 4
3 5 6 7 7 7 7 7 5 2 2 3 2 2 1 3 7 12 17 8 8 10 10 10 11 11 13 17 13 12 14 12 12 8 3 4 8 11 11 9 7 6 4
6 7 7 7 7 7 7 6 2 2 4 5 4 3 3 4 9 13 18 7 9 9 9 10 13 12 16 17 11 10 12 10 7 3 8 11 10 11 10 6 5 5 4
6 6 7 7 6 5 4 4 5 6 6 6 6 5 5 6 9 15 19 10 9 10 10 9 9 16 18 17 13 9 10 8 2 6 8 9 9 8 8 7 6 3 4
5 6 7 6 5 6 8 9 8 7 6 6 6 6 5 6 9 14 19 17 16 11 9 8 9 16 17 15 10 10 7 1 4 6 8 8 8 8 7 8 8 8 8
6 6 6 6 7 8 9 8 6 5 4 4 5 6 7 6 8 13 16 18 20 12 9 15 16 15 13 9 11 11 5 4 5 7 8 8 8 8 8 8 9 11 12
5 6 5 6 7 7 6 5 5 4 4 4 6 7 7 7 8 9 10 10 14 12 10 12 14 12 9 9 8 6 5 5 6 8 9 9 8 8 7 6 7 7 8
6 6 6 6 5 5 4 3 3 1 2 3 6 7 8 8 12 17 13 10 10 10 10 6 5 6 7 7 6 6 5 5 7 8 8 8 8 8 7 5 5 6 7
5 6 5 5 4 3 3 2 2 2 5 8 9 10 8 11 16 17 19 19 17 17 9 6 6 6 6 7 7 6 6 6 7 7 8 8 8 8 7 5 5 6 6
6 6 5 5 4 3 3 3 4 5 8 9 11 13 14 16 16 16 17 17 14 13 7 7 7 7 6 6 6 6 6 6 6 7 7 7 7 8 7 6 5 5 6
8 10 8 5 5 4 4 4 4 5 6 7 8 12 15 15 15 15 15 11 9 9 8 7 7 7 7 6 6 6 6 6 6 7 7 7 7 7 7 6 5 5 5
7 6 6 5 5 5 5 5 5 6 6 6 6 9 13 13 11 12 11 7 7 8 8 8 7 7 6 6 6 6 7 7 7 7 7 7 7 6 6 6 5 7 5
8 12 9 5 5 5 5 5 5 6 6 7 7 8 9 8 7 8 7 7 7 7 8 8 7 7 6 6 6 6 7 7 7 7 7 6 6 6 6 6 5 4 4
7 8 10 6 4 4 4 5 5 6 7 7 7 10 14 8 8 9 8 8 7 7 7 7 7 6 6 5 5 6 7 6 6 6 6 6 6 5 4 4 4 5 6
7 5 4 4 3 4 4 4 5 6 7 8 7 8 13 8 8 8 8 8 8 7 7 7 6 6 5 5 5 5 6 6 5 5 5 5 5 4 3 3 5 6 7
7 6 4 3 3 4 4 4 4 5 6 7 8 8 8 8 8 9 9 9 9 9 8 8 8 8 7 6 5 5 5 4 4 4 5 5 4 3 3 4 7 7 7
6 6 4 3 2 3 3 4 4 5 6 7 7 8 8 9 9 10 10 9 9 9 9 9 9 12 14 9 6 5 4 4 4 4 6 5 5 4 4 5 5 6 7
6 5 4 3 2 2 2 3 4 5 6 6 7 8 8 9 9 10 10 9 10 10 12 11 9 10 13 14 11 7 5 4 5 4 4 4 5 5 4 4 3 5 6
5 5 4 3 3 2 2 3 4 5 5 6 6 7 8 9 9 9 9 10 10 10 11 10 13 14 15 12 12 10 7 4 3 3 3 3 4 3 3 3 3 4 6
Wind_Direction
107 105 93 41 328 318 306 298 298 296 304 309 316 340 31 58 43 15 334 324 316 306 301 299 292 286 279 273 266 264 261 264 276 279 271 280 278 278 285 281 274 254 224
114 111 114 298 312 317 310 306 305 300 300 299 297 283 184 151 150 332 323 323 311 309 306 302 297 297 284 275 269 264 263 259 268 282 287 283 274 272 274 275 267 218 166
65 38 323 311 315 316 309 307 305 300 303 303 283 248 223 204 229 300 307 304 302 303 302 299 296 297 294 284 275 273 272 274 265 279 283 277 273 268 268 262 182 81 86
16 353 322 307 305 303 304 306 298 297 300 297 280 252 232 215 237 303 307 300 299 302 300 296 294 293 288 286 290 283 285 284 277 276 278 276 271 263 248 226 152 92 49
334 317 304 302 305 306 310 304 299 303 308 303 295 275 253 221 266 321 314 312 309 306 303 299 299 304 304 311 310 299 294 287 283 277 274 272 265 254 237 178 141 131 69
304 295 300 305 307 299 292 295 302 307 307 309 307 295 279 230 341 335 332 313 308 305 302 303 306 305 307 315 312 305 296 289 283 274 268 260 256 241 205 154 140 149 152
291 289 282 271 284 284 288 295 292 292 295 303 307 303 244 254 335 332 335 330 307 303 301 304 309 306 309 300 307 306 297 289 282 273 260 250 242 217 172 150 134 112 94
270 274 267 266 272 276 283 282 276 275 287 300 315 11 117 322 332 329 335 327 303 300 300 298 299 301 301 311 310 300 295 293 288 280 252 238 221 179 149 132 125 107 81
284 278 272 268 270 275 276 273 268 271 328 355 12 33 351 314 324 331 339 317 310 307 305 304 302 299 306 315 311 302 301 302 307 309 241 155 140 133 132 126 131 127 103
282 280 283 286 285 282 276 277 296 37 40 33 18 356 341 322 325 335 338 322 317 315 312 307 307 307 312 315 309 299 300 307 321 29 80 89 98 101 99 110 128 129 116
293 307 317 317 311 304 325 20 54 62 49 28 7 347 334 329 332 335 337 333 322 318 313 311 309 313 315 313 308 297 294 298 359 84 86 86 84 81 73 67 61 73 92
329 342 340 344 3 37 62 63 61 56 40 15 357 342 327 322 330 332 333 330 326 314 307 305 305 313 317 316 317 319 323 46 91 91 90 89 88 83 80 78 76 73 78
357 351 350 16 40 62 74 71 60 48 35 7 349 333 327 329 335 335 331 328 329 325 312 317 324 325 327 327 334 347 26 80 93 94 91 90 91 93 92 88 85 87 87
15 360 15 50 62 63 72 75 74 55 32 6 353 342 338 339 346 345 337 330 330 331 326 323 326 331 341 342 348 8 44 73 90 95 96 97 95 93 90 91 98 99 98
21 20 40 69 85 74 69 73 92 97 68 19 358 346 342 344 342 338 339 336 335 333 328 328 341 346 358 2 8 23 49 76 90 99 102 102 98 95 89 78 84 86 89
40 39 53 72 78 72 62 23 353 331 343 358 2 357 346 338 335 342 344 342 341 342 347 350 356 2 7 9 13 27 49 74 90 99 102 103 105 105 101 87 80 83 85
67 68 63 58 55 50 38 34 17 356 355 1 2 354 350 346 345 347 346 340 344 351 359 359 3 6 10 14 19 32 52 73 89 96 100 101 104 107 109 104 92 85 82
78 80 73 56 47 40 34 30 24 11 360 356 353 350 347 345 343 345 345 347 359 3 1 0 2 5 11 20 27 35 52 73 86 91 95 99 104 109 112 111 104 100 90
87 84 72 59 50 40 31 25 20 15 7 357 354 353 347 342 339 348 352 2 358 356 355 356 359 4 13 22 31 39 52 69 81 87 93 99 102 104 106 109 112 111 98
90 90 82 67 50 37 27 23 21 19 12 6 3 359 348 346 357 359 358 357 357 355 352 354 358 7 17 25 34 43 51 61 71 81 89 95 96 97 100 104 111 113 104
100 92 86 74 56 41 30 24 21 21 16 9 3 355 353 355 358 358 359 359 359 357 354 355 359 8 19 28 35 45 53 59 65 73 81 89 97 95 93 93 101 111 113
110 104 94 83 64 46 35 24 21 22 19 14 4 357 356 2 3 3 3 3 2 1 360 0 3 11 21 28 32 43 53 61 62 67 77 88 95 92 86 90 104 112 115
116 113 101 86 68 51 38 24 23 21 19 15 9 5 4 6 6 8 7 5 6 7 10 11 13 18 21 25 28 35 48 51 58 71 79 84 87 82 79 90 105 114 118
115 119 115 105 82 55 38 24 20 21 20 19 16 12 8 7 9 10 10 8 9 12 13 15 16 15 20 22 22 24 27 38 52 64 75 79 76 69 66 75 90 112 121
100 106 113 116 102 77 44 27 21 21 22 22 20 17 13 12 12 11 10 10 12 15 15 15 14 12 13 18 20 17 24 57 67 67 70 72 73 71 71 79 91 109 119
93 89 89 90 90 80 56 35 27 26 25 23 22 21 19 17 15 12 11 12 12 13 13 12 12 17 15 14 12 14 28 57 87 92 80 77 72 72 85 105 130 123 126